• In Czech Republic
  • List of Countries
  • For 7 days
  • Water Temperature
  • Satellite Maps
  • Weather Map
  • Weather Widgets
  • user-avatar
    Login

    Hourly Weather Kızıltepe

    Today, 23 February, Friday

    Time Temperature Precipitation Wind Pressure Humidity
    00:00 +11°C° 0 mm 1 mps 716 mmHg 74%
    01:00 +11°C° 0 mm 1 mps 716 mmHg 74%
    02:00 +10°C° 0 mm 1 mps 716 mmHg 75%
    03:00 +10°C° 0 mm 1 mps 716 mmHg 75%
    04:00 +10°C° 0 mm 1 mps 716 mmHg 76%
    05:00 +9°C° 0 mm 1 mps 716 mmHg 76%
    06:00 +9°C° 0 mm 1 mps 716 mmHg 76%
    07:00 +10°C° 0 mm 1 mps 716 mmHg 73%
    08:00 +11°C° 0 mm 1 mps 716 mmHg 69%
    09:00 +12°C° 0 mm 1 mps 716 mmHg 66%
    10:00 +13°C° 0 mm 1 mps 716 mmHg 63%
    11:00 +14°C° 0 mm 2 mps 716 mmHg 59%
    12:00 +15°C° 0 mm 2 mps 716 mmHg 55%
    13:00 +16°C° 0.4 mm 2 mps 715 mmHg 54%
    14:00 +16°C° 0.4 mm 2 mps 715 mmHg 52%
    15:00 +17°C° 0 mm 2 mps 715 mmHg 49%
    16:00 +16°C° 0.4 mm 1 mps 714 mmHg 53%
    17:00 +15°C° 0.4 mm 1 mps 714 mmHg 58%
    18:00 +13°C° 0.4 mm 0 mps 714 mmHg 62%
    19:00 +14°C° 0.4 mm 1 mps 714 mmHg 64%
    20:00 +13°C° 0.4 mm 1 mps 714 mmHg 65%
    21:00 +13°C° 0.4 mm 1 mps 715 mmHg 67%
    22:00 +12°C° 0.2 mm 1 mps 715 mmHg 68%
    23:00 +12°C° 0.2 mm 1 mps 715 mmHg 69%

    Tomorrow, 24 February, Saturday

    Time Temperature Precipitation Wind Pressure Humidity
    00:00 +12°C° 0.2 mm 1 mps 715 mmHg 70%
    01:00 +12°C° 0.1 mm 1 mps 715 mmHg 71%
    02:00 +11°C° 0.1 mm 1 mps 714 mmHg 73%
    03:00 +11°C° 0.1 mm 1 mps 714 mmHg 74%
    04:00 +11°C° 0.1 mm 1 mps 714 mmHg 76%
    05:00 +10°C° 0.1 mm 1 mps 714 mmHg 77%
    06:00 +10°C° 0.1 mm 1 mps 714 mmHg 79%
    07:00 +11°C° 0.1 mm 1 mps 715 mmHg 76%
    08:00 +11°C° 0.1 mm 1 mps 715 mmHg 73%
    09:00 +12°C° 0.1 mm 1 mps 715 mmHg 71%
    10:00 +13°C° 0.2 mm 1 mps 715 mmHg 65%
    11:00 +14°C° 0.2 mm 1 mps 715 mmHg 59%
    12:00 +15°C° 0.2 mm 1 mps 715 mmHg 53%
    13:00 +16°C° 0.3 mm 1 mps 715 mmHg 51%
    14:00 +16°C° 0.3 mm 1 mps 714 mmHg 49%
    15:00 +16°C° 0.3 mm 1 mps 714 mmHg 47%
    16:00 +16°C° 0.3 mm 1 mps 714 mmHg 51%
    17:00 +15°C° 0.3 mm 1 mps 714 mmHg 55%
    18:00 +15°C° 0.3 mm 1 mps 714 mmHg 59%
    19:00 +14°C° 0.2 mm 1 mps 714 mmHg 61%
    20:00 +13°C° 0.2 mm 1 mps 714 mmHg 63%
    21:00 +13°C° 0.2 mm 1 mps 714 mmHg 64%
    22:00 +12°C° 0 mm 1 mps 714 mmHg 66%
    23:00 +12°C° 0 mm 1 mps 714 mmHg 67%

    Day after tomorrow, 25 February, Sunday

    Time Temperature Precipitation Wind Pressure Humidity
    00:00 +12°C° 0 mm 1 mps 714 mmHg 68%
    01:00 +11°C° 0 mm 1 mps 714 mmHg 69%
    02:00 +10°C° 0 mm 0 mps 714 mmHg 70%
    03:00 +10°C° 0 mm 0 mps 714 mmHg 70%
    04:00 +9°C° 0 mm 0 mps 714 mmHg 71%
    05:00 +10°C° 0 mm 1 mps 714 mmHg 72%
    06:00 +10°C° 0 mm 1 mps 714 mmHg 73%
    07:00 +11°C° 0 mm 1 mps 715 mmHg 70%
    08:00 +12°C° 0 mm 1 mps 715 mmHg 67%
    09:00 +13°C° 0 mm 2 mps 715 mmHg 64%
    10:00 +13°C° 0.2 mm 3 mps 715 mmHg 62%
    11:00 +14°C° 0.2 mm 3 mps 715 mmHg 59%
    12:00 +15°C° 0.2 mm 4 mps 715 mmHg 56%
    13:00 +15°C° 0.3 mm 5 mps 714 mmHg 56%
    14:00 +14°C° 0.3 mm 5 mps 714 mmHg 57%
    15:00 +14°C° 0.3 mm 5 mps 713 mmHg 57%
    16:00 +13°C° 0.2 mm 4 mps 713 mmHg 61%
    17:00 +13°C° 0.2 mm 3 mps 713 mmHg 65%
    18:00 +12°C° 0.2 mm 3 mps 713 mmHg 69%
    19:00 +11°C° 0.4 mm 3 mps 713 mmHg 73%
    20:00 +11°C° 0.4 mm 3 mps 714 mmHg 77%
    21:00 +11°C° 0.4 mm 3 mps 714 mmHg 81%
    22:00 +10°C° 0.4 mm 2 mps 714 mmHg 82%
    23:00 +10°C° 0.4 mm 2 mps 714 mmHg 84%

    26 February, Monday

    Time Temperature Precipitation Wind Pressure Humidity
    00:00 +10°C° 0.4 mm 2 mps 714 mmHg 85%
    01:00 +10°C° 0.5 mm 2 mps 714 mmHg 85%
    02:00 +10°C° 0.5 mm 3 mps 713 mmHg 86%
    03:00 +10°C° 0.5 mm 3 mps 713 mmHg 86%
    04:00 +9°C° 0.3 mm 3 mps 713 mmHg 87%
    05:00 +9°C° 0.3 mm 3 mps 713 mmHg 88%
    06:00 +9°C° 0.3 mm 2 mps 713 mmHg 89%
    07:00 +9°C° 0.1 mm 2 mps 713 mmHg 87%
    08:00 +10°C° 0.1 mm 3 mps 714 mmHg 85%
    09:00 +10°C° 0.1 mm 3 mps 714 mmHg 83%
    10:00 +11°C° 0.2 mm 3 mps 714 mmHg 80%
    11:00 +12°C° 0.2 mm 3 mps 714 mmHg 76%
    12:00 +12°C° 0.2 mm 3 mps 714 mmHg 73%
    13:00 +13°C° 0.4 mm 3 mps 713 mmHg 71%
    14:00 +13°C° 0.4 mm 3 mps 713 mmHg 70%
    15:00 +13°C° 0.4 mm 3 mps 713 mmHg 68%
    16:00 +13°C° 0.4 mm 3 mps 713 mmHg 71%
    17:00 +12°C° 0.4 mm 3 mps 713 mmHg 74%
    18:00 +13°C° 0.4 mm 2 mps 713 mmHg 78%
    19:00 +13°C° 0.4 mm 2 mps 713 mmHg 80%
    20:00 +11°C° 0.4 mm 3 mps 714 mmHg 82%
    21:00 +11°C° 0.4 mm 3 mps 714 mmHg 84%
    22:00 +11°C° 0.3 mm 3 mps 714 mmHg 86%
    23:00 +10°C° 0.3 mm 3 mps 714 mmHg 88%

    27 February, Tuesday

    Time Temperature Precipitation Wind Pressure Humidity
    00:00 +10°C° 0.3 mm 3 mps 714 mmHg 89%
    01:00 +10°C° 0.2 mm 3 mps 714 mmHg 90%
    02:00 +10°C° 0.2 mm 3 mps 714 mmHg 91%
    03:00 +10°C° 0.2 mm 3 mps 714 mmHg 92%
    04:00 +9°C° 0.2 mm 3 mps 714 mmHg 92%
    05:00 +9°C° 0.2 mm 3 mps 715 mmHg 92%
    06:00 +8°C° 0.2 mm 4 mps 715 mmHg 92%
    07:00 +10°C° 0.1 mm 4 mps 715 mmHg 89%
    08:00 +10°C° 0.1 mm 4 mps 716 mmHg 87%
    09:00 +9°C° 0.1 mm 5 mps 716 mmHg 85%
    10:00 +10°C° 0.2 mm 5 mps 716 mmHg 82%
    11:00 +10°C° 0.2 mm 5 mps 716 mmHg 79%
    12:00 +12°C° 0.2 mm 5 mps 716 mmHg 77%
    13:00 +10°C° 0.8 mm 5 mps 716 mmHg 78%
    14:00 +10°C° 0.8 mm 5 mps 715 mmHg 80%
    15:00 +10°C° 0.8 mm 5 mps 715 mmHg 82%
    16:00 +11°C° 0.3 mm 4 mps 715 mmHg 82%
    17:00 +11°C° 0.3 mm 4 mps 715 mmHg 82%
    18:00 +11°C° 0.3 mm 4 mps 716 mmHg 82%
    19:00 +11°C° 0.6 mm 3 mps 716 mmHg 84%
    20:00 +10°C° 0.6 mm 3 mps 716 mmHg 85%
    21:00 +10°C° 0.6 mm 3 mps 716 mmHg 87%
    22:00 +10°C° 0.4 mm 3 mps 717 mmHg 87%
    23:00 +10°C° 0.4 mm 2 mps 717 mmHg 88%

    28 February, Wednesday

    Time Temperature Precipitation Wind Pressure Humidity
    00:00 +10°C° 0.4 mm 2 mps 717 mmHg 88%
    01:00 +9°C° 0.1 mm 2 mps 717 mmHg 89%
    02:00 +9°C° 0.1 mm 2 mps 717 mmHg 90%
    03:00 +10°C° 0.1 mm 1 mps 717 mmHg 91%
    04:00 +10°C° 0 mm 1 mps 717 mmHg 91%
    05:00 +10°C° 0 mm 1 mps 717 mmHg 91%
    06:00 +10°C° 0 mm 1 mps 718 mmHg 92%
    07:00 +9°C° 0 mm 2 mps 718 mmHg 89%
    08:00 +10°C° 0 mm 2 mps 718 mmHg 86%
    09:00 +12°C° 0 mm 2 mps 719 mmHg 83%
    10:00 +13°C° 0.1 mm 1 mps 719 mmHg 78%
    11:00 +14°C° 0.1 mm 1 mps 719 mmHg 72%
    12:00 +15°C° 0.1 mm 1 mps 719 mmHg 66%
    13:00 +15°C° 0.1 mm 1 mps 718 mmHg 63%
    14:00 +16°C° 0.1 mm 1 mps 718 mmHg 59%
    15:00 +15°C° 0.1 mm 0 mps 718 mmHg 55%
    16:00 +15°C° 0.1 mm 0 mps 718 mmHg 59%
    17:00 +14°C° 0.1 mm 0 mps 718 mmHg 63%
    18:00 +13°C° 0.1 mm 0 mps 718 mmHg 66%
    19:00 +13°C° 0 mm 0 mps 718 mmHg 68%
    20:00 +12°C° 0 mm 0 mps 718 mmHg 70%
    21:00 +11°C° 0 mm 0 mps 718 mmHg 72%
    22:00 +11°C° 0 mm 0 mps 718 mmHg 73%
    23:00 +11°C° 0 mm 0 mps 718 mmHg 74%
    Show more